• In Hungary
  • List of Countries
  • For 7 days
  • Water Temperature
  • Satellite Maps
  • Weather Map
  • News
  • Weather Widgets
  • user-avatar
    Login

    Hourly Weather Berezno

    Today, 20 September, Thursday

    Time Temperature Precipitation Wind Pressure Humidity
    00:00 +17°C° 0 mm 2 mps 750 mmHg 80%
    01:00 +16°C° 0 mm 2 mps 750 mmHg 81%
    02:00 +16°C° 0 mm 1 mps 750 mmHg 82%
    03:00 +16°C° 0 mm 1 mps 750 mmHg 83%
    04:00 +16°C° 0 mm 1 mps 750 mmHg 84%
    05:00 +15°C° 0 mm 1 mps 750 mmHg 85%
    06:00 +16°C° 0 mm 1 mps 750 mmHg 81%
    07:00 +19°C° 0 mm 1 mps 750 mmHg 77%
    08:00 +20°C° 0 mm 1 mps 750 mmHg 71%
    09:00 +22°C° 0 mm 1 mps 750 mmHg 65%
    10:00 +24°C° 0 mm 2 mps 750 mmHg 59%
    11:00 +25°C° 0 mm 2 mps 751 mmHg 53%
    12:00 +26°C° 0 mm 2 mps 750 mmHg 49%
    13:00 +27°C° 0 mm 2 mps 750 mmHg 46%
    14:00 +28°C° 0 mm 2 mps 750 mmHg 43%
    15:00 +27°C° 0 mm 1 mps 750 mmHg 46%
    16:00 +27°C° 0 mm 1 mps 750 mmHg 50%
    17:00 +26°C° 0 mm 1 mps 750 mmHg 53%
    18:00 +24°C° 0 mm 1 mps 750 mmHg 57%
    19:00 +22°C° 0 mm 1 mps 750 mmHg 62%
    20:00 +20°C° 0 mm 1 mps 750 mmHg 66%
    21:00 +20°C° 0 mm 1 mps 750 mmHg 68%
    22:00 +19°C° 0 mm 1 mps 750 mmHg 70%
    23:00 +19°C° 0 mm 1 mps 750 mmHg 72%

    Tomorrow, 21 September, Friday

    Time Temperature Precipitation Wind Pressure Humidity
    00:00 +19°C° 0 mm 1 mps 750 mmHg 74%
    01:00 +18°C° 0 mm 1 mps 750 mmHg 75%
    02:00 +18°C° 0 mm 1 mps 750 mmHg 77%
    03:00 +18°C° 0 mm 1 mps 749 mmHg 78%
    04:00 +16°C° 0 mm 1 mps 749 mmHg 79%
    05:00 +16°C° 0 mm 1 mps 749 mmHg 80%
    06:00 +18°C° 0 mm 1 mps 749 mmHg 77%
    07:00 +18°C° 0 mm 2 mps 749 mmHg 73%
    08:00 +19°C° 0 mm 2 mps 750 mmHg 70%
    09:00 +21°C° 0 mm 2 mps 749 mmHg 62%
    10:00 +24°C° 0 mm 3 mps 749 mmHg 55%
    11:00 +26°C° 0 mm 3 mps 749 mmHg 48%
    12:00 +26°C° 0 mm 3 mps 749 mmHg 45%
    13:00 +27°C° 0 mm 4 mps 749 mmHg 41%
    14:00 +28°C° 0 mm 4 mps 748 mmHg 38%
    15:00 +27°C° 0 mm 3 mps 748 mmHg 42%
    16:00 +26°C° 0 mm 3 mps 747 mmHg 45%
    17:00 +25°C° 0 mm 3 mps 747 mmHg 49%
    18:00 +24°C° 0 mm 3 mps 747 mmHg 53%
    19:00 +21°C° 0 mm 3 mps 747 mmHg 57%
    20:00 +19°C° 0 mm 3 mps 747 mmHg 61%
    21:00 +19°C° 0 mm 3 mps 746 mmHg 61%
    22:00 +18°C° 0 mm 3 mps 746 mmHg 61%
    23:00 +18°C° 0 mm 3 mps 746 mmHg 61%

    Day after tomorrow, 22 September, Saturday

    Time Temperature Precipitation Wind Pressure Humidity
    00:00 +17°C° 0 mm 3 mps 746 mmHg 61%
    01:00 +17°C° 0 mm 3 mps 746 mmHg 61%
    02:00 +17°C° 0 mm 3 mps 745 mmHg 60%
    03:00 +17°C° 0 mm 3 mps 745 mmHg 61%
    04:00 +16°C° 0 mm 3 mps 745 mmHg 62%
    05:00 +16°C° 0 mm 3 mps 744 mmHg 63%
    06:00 +17°C° 0 mm 4 mps 745 mmHg 63%
    07:00 +18°C° 0 mm 4 mps 745 mmHg 63%
    08:00 +19°C° 0 mm 5 mps 746 mmHg 63%
    09:00 +19°C° 0 mm 5 mps 746 mmHg 62%
    10:00 +19°C° 0 mm 6 mps 747 mmHg 61%
    11:00 +19°C° 0 mm 6 mps 747 mmHg 60%
    12:00 +17°C° 0 mm 6 mps 748 mmHg 60%
    13:00 +16°C° 0 mm 5 mps 748 mmHg 60%
    14:00 +15°C° 0 mm 5 mps 748 mmHg 60%
    15:00 +14°C° 0.2 mm 5 mps 748 mmHg 66%
    16:00 +13°C° 0.2 mm 4 mps 748 mmHg 72%
    17:00 +12°C° 0.2 mm 4 mps 748 mmHg 78%
    18:00 +12°C° 0.6 mm 3 mps 749 mmHg 81%
    19:00 +11°C° 0.6 mm 3 mps 749 mmHg 85%
    20:00 +10°C° 0.6 mm 2 mps 749 mmHg 89%
    21:00 +10°C° 0 mm 2 mps 749 mmHg 90%
    22:00 +9°C° 0 mm 3 mps 749 mmHg 92%
    23:00 +9°C° 0 mm 3 mps 749 mmHg 93%

    23 September, Sunday

    Time Temperature Precipitation Wind Pressure Humidity
    00:00 +8°C° 0 mm 3 mps 749 mmHg 92%
    01:00 +8°C° 0 mm 3 mps 749 mmHg 92%
    02:00 +7°C° 0 mm 4 mps 748 mmHg 91%
    03:00 +8°C° 0 mm 3 mps 748 mmHg 91%
    04:00 +8°C° 0 mm 3 mps 748 mmHg 91%
    05:00 +7°C° 0 mm 3 mps 748 mmHg 91%
    06:00 +8°C° 0 mm 3 mps 748 mmHg 87%
    07:00 +8°C° 0 mm 4 mps 748 mmHg 83%
    08:00 +10°C° 0 mm 4 mps 749 mmHg 79%
    09:00 +12°C° 0 mm 4 mps 749 mmHg 71%
    10:00 +14°C° 0 mm 5 mps 749 mmHg 62%
    11:00 +15°C° 0 mm 5 mps 749 mmHg 54%
    12:00 +16°C° 0 mm 5 mps 748 mmHg 51%
    13:00 +17°C° 0 mm 5 mps 748 mmHg 48%
    14:00 +17°C° 0 mm 5 mps 748 mmHg 45%
    15:00 +18°C° 0 mm 4 mps 747 mmHg 48%
    16:00 +17°C° 0 mm 3 mps 747 mmHg 50%
    17:00 +17°C° 0 mm 3 mps 746 mmHg 53%
    18:00 +16°C° 0 mm 3 mps 746 mmHg 57%
    19:00 +14°C° 0 mm 2 mps 746 mmHg 61%
    20:00 +13°C° 0 mm 2 mps 745 mmHg 65%
    21:00 +13°C° 0 mm 3 mps 745 mmHg 64%
    22:00 +13°C° 0 mm 4 mps 744 mmHg 63%
    23:00 +14°C° 0 mm 5 mps 743 mmHg 62%

    24 September, Monday

    Time Temperature Precipitation Wind Pressure Humidity
    00:00 +14°C° 0.6 mm 6 mps 742 mmHg 65%
    01:00 +14°C° 0.6 mm 6 mps 741 mmHg 67%
    02:00 +14°C° 0.6 mm 7 mps 740 mmHg 69%
    03:00 +14°C° 1.7 mm 7 mps 739 mmHg 71%
    04:00 +14°C° 1.7 mm 6 mps 738 mmHg 73%
    05:00 +14°C° 1.7 mm 6 mps 737 mmHg 75%
    06:00 +14°C° 1.3 mm 6 mps 736 mmHg 77%
    07:00 +15°C° 1.3 mm 7 mps 736 mmHg 79%
    08:00 +15°C° 1.3 mm 7 mps 735 mmHg 80%
    09:00 +15°C° 1.2 mm 7 mps 735 mmHg 82%
    10:00 +15°C° 1.2 mm 7 mps 735 mmHg 84%
    11:00 +15°C° 1.2 mm 7 mps 735 mmHg 86%
    12:00 +13°C° 0.4 mm 8 mps 736 mmHg 84%
    13:00 +12°C° 0.4 mm 8 mps 737 mmHg 82%
    14:00 +11°C° 0.4 mm 9 mps 738 mmHg 80%
    15:00 +11°C° 0.1 mm 8 mps 739 mmHg 78%
    16:00 +11°C° 0.1 mm 8 mps 740 mmHg 77%
    17:00 +10°C° 0.1 mm 8 mps 741 mmHg 75%
    18:00 +10°C° 0 mm 7 mps 741 mmHg 76%
    19:00 +9°C° 0 mm 7 mps 742 mmHg 78%
    20:00 +9°C° 0 mm 6 mps 742 mmHg 79%
    21:00 +8°C° 0 mm 6 mps 743 mmHg 81%
    22:00 +8°C° 0 mm 6 mps 744 mmHg 82%
    23:00 +8°C° 0 mm 6 mps 744 mmHg 83%

    25 September, Tuesday

    Time Temperature Precipitation Wind Pressure Humidity
    00:00 +8°C° 0.5 mm 6 mps 745 mmHg 84%
    01:00 +7°C° 0.5 mm 6 mps 746 mmHg 85%
    02:00 +6°C° 0.5 mm 7 mps 747 mmHg 86%
    03:00 +7°C° 0.2 mm 6 mps 748 mmHg 85%
    04:00 +5°C° 0.2 mm 6 mps 748 mmHg 84%
    05:00 +5°C° 0.2 mm 6 mps 749 mmHg 82%
    06:00 +5°C° 0 mm 6 mps 750 mmHg 80%
    07:00 +5°C° 0 mm 6 mps 750 mmHg 78%
    08:00 +5°C° 0 mm 6 mps 751 mmHg 75%
    09:00 +7°C° 0 mm 6 mps 751 mmHg 68%
    10:00 +8°C° 0 mm 6 mps 752 mmHg 61%
    11:00 +10°C° 0 mm 6 mps 752 mmHg 53%
    12:00 +10°C° 0.1 mm 6 mps 752 mmHg 50%
    13:00 +11°C° 0.1 mm 6 mps 752 mmHg 47%
    14:00 +11°C° 0.1 mm 6 mps 752 mmHg 44%
    15:00 +12°C° 0 mm 5 mps 752 mmHg 47%
    16:00 +12°C° 0 mm 4 mps 752 mmHg 50%
    17:00 +11°C° 0 mm 3 mps 751 mmHg 53%
    18:00 +10°C° 0 mm 3 mps 751 mmHg 58%
    19:00 +9°C° 0 mm 3 mps 752 mmHg 64%
    20:00 +8°C° 0 mm 3 mps 752 mmHg 70%
    21:00 +7°C° 0 mm 3 mps 751 mmHg 73%
    22:00 +7°C° 0 mm 3 mps 751 mmHg 77%
    23:00 +7°C° 0 mm 3 mps 751 mmHg 80%
    Show more